This demonstration page uses our WeatherBlox Daily Observations layout. Learn more.

Left ArrowRight Arrow

Hourly Observations for November 11, 2020

Temp ( °F °C ) Dew Point ( °F °C ) Humidity (%) Winds ( mph kmh ) Pressure ( in mb ) Visibility ( mi km ) Precip ( " mm )
12:15 am 00:15 Clear 34 1 25 -4 70 70 W 15 24 30.02 1016 10 16 N/A
12:35 am 00:35 Clear 33 0.7 25 -4 71 71 W 14 22 30.02 1017 10 16 N/A
12:55 am 00:55 Clear 33 0.3 25 -4.1 73 73 W 14 22 30.02 1017 10 16 N/A
1:15 am 01:15 Clear 32 0.1 25 -3.8 75 75 W 13 20 30.03 1017 10 16 N/A
1:35 am 01:35 Clear 32 undefined 25 -4 75 75 W 12 19 30.03 1017 10 16 N/A
1:55 am 01:55 Clear 32 0.1 25 -4 74 74 W 9 15 30.03 1017 10 16 N/A
2:15 am 02:15 Clear 32 0.2 25 -4.1 73 73 W 10 17 30.04 1017 10 16 N/A
2:35 am 02:35 Clear 32 undefined 24 -4.4 73 73 W 7 11 30.03 1017 10 16 N/A
2:55 am 02:55 Clear 31 -0.4 24 -4.7 73 73 W 5 7 30.04 1017 10 16 N/A
3:15 am 03:15 Partly Cloudy 32 -0.1 23 -5.1 69 69 W 6 9 30.05 1017 10 16 N/A
3:35 am 03:35 Mostly Cloudy 31 -0.7 23 -4.9 74 74 WSW 6 9 30.05 1018 10 16 N/A
3:55 am 03:55 Partly Cloudy 31 -0.4 24 -4.6 74 74 SW 3 6 30.05 1018 10 16 N/A
4:15 am 04:15 Partly Cloudy 32 undefined 24 -4.5 72 72 WSW 13 20 30.06 1018 10 16 N/A
4:35 am 04:35 Mostly Cloudy 30 -1.2 24 -4.5 79 79 WSW 8 13 30.07 1018 10 16 N/A
4:55 am 04:55 Mostly Cloudy 31 -0.3 24 -4.3 75 75 W 13 20 30.07 1018 10 16 N/A
5:15 am 05:15 Cloudy 31 -0.5 24 -4.5 75 75 WSW 12 19 30.07 1018 10 16 N/A
5:35 am 05:35 Cloudy 32 0.2 25 -3.9 74 74 WSW 10 17 30.06 1018 10 16 N/A
5:55 am 05:55 Cloudy 33 0.8 25 -3.7 72 72 W 12 19 30.06 1018 10 16 N/A
6:15 am 06:15 Cloudy 34 0.9 26 -3.6 72 72 WSW 10 17 30.07 1018 10 16 N/A
6:35 am 06:35 Cloudy 34 1.2 25 -3.8 70 70 WSW 9 15 30.06 1018 10 16 N/A
6:55 am 06:55 Cloudy 34 1.1 26 -3.6 71 71 WSW 9 15 30.06 1018 10 16 N/A
7:15 am 07:15 Cloudy 34 1 26 -3.5 72 72 WSW 10 17 30.09 1019 10 16 N/A
7:35 am 07:35 Cloudy 33 0.8 26 -3.6 73 73 WSW 12 19 30.08 1019 10 16 N/A
7:55 am 07:55 Partly Cloudy 33 0.3 25 -3.7 75 75 W 10 17 30.10 1019 10 16 N/A
8:15 am 08:15 Sunny 33 0.7 26 -3.4 74 74 WSW 8 13 30.11 1020 10 16 N/A
8:35 am 08:35 Sunny 35 1.5 26 -3.5 70 70 WSW 9 15 30.10 1019 10 16 N/A
8:55 am 08:55 Sunny 36 2.1 26 -3.1 69 69 WSW 12 19 30.11 1019 10 16 N/A
9:15 am 09:15 Sunny 38 3.4 26 -3.5 61 61 WSW 12 19 30.10 1019 10 16 N/A
9:35 am 09:35 Sunny 39 3.7 26 -3.1 61 61 W 13 20 30.10 1019 10 16 N/A
9:55 am 09:55 Sunny 40 4.5 28 -2.5 61 61 WSW 14 22 30.08 1019 10 16 N/A
10:15 am 10:15 Sunny 42 5.6 29 -1.6 60 60 WSW 13 20 30.07 1018 10 16 N/A
10:35 am 10:35 Sunny 43 6.3 29 -1.5 58 58 WSW 13 20 30.08 1018 10 16 N/A
10:55 am 10:55 Sunny 45 7.1 29 -1.5 55 55 WSW 10 17 30.07 1018 10 16 N/A
11:15 am 11:15 Sunny 46 8 31 -0.5 55 55 WSW 13 20 30.06 1018 10 16 N/A
11:35 am 11:35 Sunny 48 8.8 31 -0.5 52 52 WSW 10 17 30.05 1018 10 16 N/A
11:55 am 11:55 Sunny 50 9.9 31 -0.3 49 49 WSW 9 15 30.04 1017 10 16 N/A
12:15 pm 12:15 Sunny 51 10.5 32 -0.2 48 48 WSW 9 15 30.02 1017 10 16 N/A
12:35 pm 12:35 Sunny 53 11.8 31 -0.6 43 43 SW 8 13 30.01 1016 10 16 N/A
12:55 pm 12:55 Sunny 54 12.3 28 -2.5 36 36 WSW 6 9 29.98 1015 10 16 N/A
1:15 pm 13:15 Sunny 55 12.9 21 -6 27 27 WSW 10 17 29.96 1014 10 16 N/A
1:35 pm 13:35 Sunny 55 12.6 21 -6.3 26 26 WSW 10 17 29.96 1015 10 16 N/A
1:55 pm 13:55 Sunny 55 12.9 21 -6.3 26 26 W 15 24 29.96 1014 10 16 N/A
2:15 pm 14:15 Sunny 55 12.7 20 -6.5 26 26 WNW 12 19 29.95 1014 10 16 N/A
2:35 pm 14:35 Sunny 55 12.8 21 -6.1 26 26 W 13 20 29.94 1014 10 16 N/A
2:55 pm 14:55 Sunny 55 12.7 20 -6.7 25 25 W 13 20 29.94 1014 10 16 N/A
3:15 pm 15:15 Sunny 55 12.7 20 -6.9 25 25 W 7 11 29.94 1014 10 16 N/A
3:35 pm 15:35 Sunny 55 12.7 19 -7 25 25 W 6 9 29.94 1014 10 16 N/A
3:55 pm 15:55 Sunny 55 12.5 18 -7.7 24 24 WSW 3 6 29.94 1014 10 16 N/A
4:15 pm 16:15 Sunny 54 12.3 17 -8.1 23 23 N N/A 29.94 1014 10 16 N/A
4:35 pm 16:35 Sunny 53 11.8 20 -6.6 27 27 N N/A 29.94 1014 10 16 N/A
4:55 pm 16:55 Sunny 51 10.7 22 -5.5 32 32 SSE 3 6 29.95 1014 10 16 N/A
5:15 pm 17:15 Sunny 50 10.1 21 -6.2 31 31 S 5 7 29.95 1014 10 16 N/A
5:35 pm 17:35 Clear 48 9.1 20 -6.5 33 33 SSE 3 6 29.96 1015 10 16 N/A
5:55 pm 17:55 Clear 46 7.6 20 -6.7 36 36 SSE 5 7 29.98 1015 10 16 N/A
6:15 pm 18:15 Clear 43 6 21 -6.1 42 42 SSE 7 11 30.00 1016 10 16 N/A
6:35 pm 18:35 Clear 40 4.4 22 -5.3 50 50 S 7 11 30.02 1017 10 16 N/A
6:55 pm 18:55 Clear 41 5.1 23 -5 48 48 S 8 13 30.02 1016 10 16 N/A
7:15 pm 19:15 Clear 41 5 23 -5 49 49 S 6 9 30.01 1016 10 16 N/A
7:35 pm 19:35 Clear 36 2.1 24 -4.6 62 62 SSE 5 7 30.04 1017 10 16 N/A
7:55 pm 19:55 Clear 39 3.7 24 -4.4 56 56 S 7 11 30.04 1017 10 16 N/A
8:15 pm 20:15 Clear 37 2.9 25 -4 61 61 S 6 9 30.05 1018 10 16 N/A
8:35 pm 20:35 Clear 39 4 24 -4.3 55 55 S 8 13 30.04 1017 10 16 N/A
8:55 pm 20:55 Clear 36 2.3 25 -4.1 63 63 S 5 7 30.04 1017 10 16 N/A
9:15 pm 21:15 Clear 32 0.2 24 -4.3 72 72 SSE 3 6 30.06 1018 10 16 N/A
9:35 pm 21:35 Clear 35 1.5 24 -4.2 66 66 S 3 6 30.07 1018 10 16 N/A
9:55 pm 21:55 Clear 34 1.3 25 -4 68 68 S 7 11 30.07 1018 10 16 N/A
10:15 pm 22:15 Clear 35 1.7 25 -4 66 66 S 5 7 30.06 1018 10 16 N/A
10:35 pm 22:35 Clear 38 3.2 25 -3.7 61 61 S 10 17 30.05 1018 10 16 N/A
10:55 pm 22:55 Clear 37 2.7 25 -3.7 63 63 S 7 11 30.04 1017 10 16 N/A
11:15 pm 23:15 Clear 34 1.1 26 -3.5 72 72 S 9 15 30.05 1018 10 16 N/A
11:35 pm 23:35 Clear 36 2 26 -3.2 69 69 S 7 11 30.05 1017 10 16 N/A
11:55 pm 23:55 Clear 36 2.1 27 -3 69 69 S 7 11 30.04 1017 10 16 N/A

Powered by AerisWeather